When you browse on this site, cookies collect data to enhance your experience and personalize the content and advertising you see.
Visit our Privacy Policy to learn more. By continuing to use the site, you agree to this use of cookies and data.
  • în România
  • Lista ţărilor
  • Pe 7 zile
  • Temperatura apei
  • Hartă satelitară
  • Meteo pe hartă
  • Widget-uri
  • user-avatar
    Intrare

    Meteo pe oră la Dubovyy Umet

    Astăzi, 21 Mai, Marţi

    Timp Temperatura Precipitaţii Vânt Presiune Umiditate
    00:00 +5°C° 0 mm 2 m/s 751 mmHg 72%
    01:00 +4°C° 0 mm 3 m/s 752 mmHg 74%
    02:00 +3°C° 0 mm 3 m/s 752 mmHg 75%
    03:00 +4°C° 0 mm 2 m/s 752 mmHg 82%
    04:00 +4°C° 0 mm 3 m/s 752 mmHg 79%
    05:00 +5°C° 0 mm 3 m/s 752 mmHg 76%
    06:00 +7°C° 0 mm 4 m/s 753 mmHg 73%
    07:00 +8°C° 0.1 mm 4 m/s 753 mmHg 65%
    08:00 +11°C° 0.1 mm 4 m/s 753 mmHg 57%
    09:00 +12°C° 0 mm 5 m/s 752 mmHg 49%
    10:00 +13°C° 0 mm 5 m/s 753 mmHg 47%
    11:00 +13°C° 0 mm 5 m/s 753 mmHg 45%
    12:00 +13°C° 0 mm 5 m/s 753 mmHg 44%
    13:00 +14°C° 0 mm 5 m/s 753 mmHg 43%
    14:00 +14°C° 0 mm 5 m/s 753 mmHg 42%
    15:00 +14°C° 0 mm 5 m/s 753 mmHg 42%
    16:00 +14°C° 0 mm 4 m/s 753 mmHg 46%
    17:00 +14°C° 0 mm 3 m/s 752 mmHg 49%
    18:00 +13°C° 0 mm 3 m/s 752 mmHg 53%
    19:00 +12°C° 0 mm 3 m/s 752 mmHg 56%
    20:00 +12°C° 0 mm 2 m/s 752 mmHg 59%
    21:00 +9°C° 0 mm 2 m/s 752 mmHg 61%
    22:00 +9°C° 0 mm 2 m/s 752 mmHg 62%
    23:00 +8°C° 0 mm 3 m/s 752 mmHg 62%

    Mâine, 22 Mai, Miercuri

    Timp Temperatura Precipitaţii Vânt Presiune Umiditate
    00:00 +8°C° 0 mm 3 m/s 753 mmHg 63%
    01:00 +8°C° 0 mm 3 m/s 752 mmHg 64%
    02:00 +7°C° 0 mm 3 m/s 752 mmHg 66%
    03:00 +7°C° 0 mm 3 m/s 752 mmHg 68%
    04:00 +8°C° 0 mm 3 m/s 752 mmHg 67%
    05:00 +9°C° 0 mm 3 m/s 752 mmHg 67%
    06:00 +11°C° 0 mm 3 m/s 752 mmHg 66%
    07:00 +12°C° 0.2 mm 2 m/s 751 mmHg 67%
    08:00 +12°C° 0.2 mm 2 m/s 751 mmHg 68%
    09:00 +13°C° 0.2 mm 1 m/s 751 mmHg 70%
    10:00 +12°C° 1.6 mm 2 m/s 751 mmHg 76%
    11:00 +12°C° 1.6 mm 2 m/s 750 mmHg 82%
    12:00 +10°C° 1.6 mm 3 m/s 750 mmHg 88%
    13:00 +11°C° 0.5 mm 3 m/s 750 mmHg 86%
    14:00 +12°C° 0.5 mm 3 m/s 749 mmHg 84%
    15:00 +13°C° 0.5 mm 3 m/s 749 mmHg 82%
    16:00 +14°C° 0.8 mm 2 m/s 749 mmHg 83%
    17:00 +15°C° 0.8 mm 1 m/s 748 mmHg 85%
    18:00 +15°C° 0.8 mm 1 m/s 748 mmHg 87%
    19:00 +15°C° 0.3 mm 1 m/s 748 mmHg 87%
    20:00 +14°C° 0.3 mm 1 m/s 748 mmHg 88%
    21:00 +14°C° 0.3 mm 2 m/s 748 mmHg 89%
    22:00 +13°C° 0 mm 3 m/s 748 mmHg 87%
    23:00 +12°C° 0 mm 3 m/s 747 mmHg 85%

    Poimâine, 23 Mai, Joi

    Timp Temperatura Precipitaţii Vânt Presiune Umiditate
    00:00 +12°C° 0 mm 4 m/s 747 mmHg 83%
    01:00 +12°C° 0 mm 4 m/s 747 mmHg 83%
    02:00 +12°C° 0 mm 4 m/s 747 mmHg 84%
    03:00 +11°C° 0 mm 4 m/s 746 mmHg 84%
    04:00 +12°C° 0 mm 4 m/s 746 mmHg 81%
    05:00 +13°C° 0 mm 4 m/s 746 mmHg 77%
    06:00 +14°C° 0 mm 4 m/s 746 mmHg 73%
    07:00 +15°C° 0 mm 5 m/s 746 mmHg 68%
    08:00 +16°C° 0 mm 5 m/s 746 mmHg 62%
    09:00 +19°C° 0 mm 6 m/s 745 mmHg 56%
    10:00 +20°C° 0 mm 7 m/s 745 mmHg 51%
    11:00 +21°C° 0 mm 7 m/s 745 mmHg 46%
    12:00 +22°C° 0 mm 7 m/s 744 mmHg 41%
    13:00 +22°C° 0 mm 7 m/s 744 mmHg 42%
    14:00 +22°C° 0 mm 7 m/s 744 mmHg 42%
    15:00 +22°C° 0 mm 7 m/s 743 mmHg 42%
    16:00 +21°C° 0 mm 6 m/s 743 mmHg 46%
    17:00 +20°C° 0 mm 5 m/s 742 mmHg 50%
    18:00 +19°C° 0 mm 4 m/s 742 mmHg 54%
    19:00 +18°C° 0 mm 4 m/s 742 mmHg 60%
    20:00 +17°C° 0 mm 4 m/s 741 mmHg 66%
    21:00 +15°C° 0 mm 4 m/s 741 mmHg 72%
    22:00 +14°C° 0 mm 5 m/s 741 mmHg 75%
    23:00 +14°C° 0 mm 5 m/s 741 mmHg 79%

    24 Mai, Vineri

    Timp Temperatura Precipitaţii Vânt Presiune Umiditate
    00:00 +14°C° 0 mm 5 m/s 740 mmHg 83%
    01:00 +13°C° 0.2 mm 5 m/s 740 mmHg 86%
    02:00 +13°C° 0.2 mm 4 m/s 740 mmHg 89%
    03:00 +13°C° 0.2 mm 4 m/s 740 mmHg 92%
    04:00 +12°C° 1 mm 5 m/s 741 mmHg 91%
    05:00 +12°C° 1 mm 5 m/s 741 mmHg 90%
    06:00 +10°C° 1 mm 6 m/s 742 mmHg 90%
    07:00 +11°C° 0.1 mm 6 m/s 742 mmHg 83%
    08:00 +11°C° 0.1 mm 6 m/s 743 mmHg 75%
    09:00 +13°C° 0.1 mm 6 m/s 743 mmHg 68%
    10:00 +13°C° 0 mm 6 m/s 744 mmHg 62%
    11:00 +14°C° 0 mm 6 m/s 744 mmHg 57%
    12:00 +14°C° 0 mm 6 m/s 745 mmHg 52%
    13:00 +14°C° 0 mm 6 m/s 745 mmHg 52%
    14:00 +14°C° 0 mm 6 m/s 746 mmHg 52%
    15:00 +15°C° 0 mm 6 m/s 746 mmHg 52%
    16:00 +14°C° 0 mm 5 m/s 746 mmHg 54%
    17:00 +13°C° 0 mm 5 m/s 747 mmHg 57%
    18:00 +13°C° 0 mm 4 m/s 747 mmHg 59%
    19:00 +11°C° 0 mm 4 m/s 748 mmHg 61%
    20:00 +10°C° 0 mm 3 m/s 748 mmHg 64%
    21:00 +8°C° 0 mm 3 m/s 749 mmHg 66%
    22:00 +8°C° 0 mm 3 m/s 749 mmHg 66%
    23:00 +7°C° 0 mm 2 m/s 750 mmHg 67%

    25 Mai, Sâmbătă

    Timp Temperatura Precipitaţii Vânt Presiune Umiditate
    00:00 +7°C° 0 mm 2 m/s 750 mmHg 67%
    01:00 +6°C° 0 mm 2 m/s 750 mmHg 68%
    02:00 +6°C° 0 mm 2 m/s 750 mmHg 69%
    03:00 +6°C° 0 mm 1 m/s 751 mmHg 70%
    04:00 +7°C° 0 mm 1 m/s 751 mmHg 67%
    05:00 +9°C° 0 mm 1 m/s 752 mmHg 64%
    06:00 +10°C° 0 mm 1 m/s 752 mmHg 61%
    07:00 +10°C° 0 mm 2 m/s 752 mmHg 55%
    08:00 +12°C° 0 mm 2 m/s 752 mmHg 49%
    09:00 +13°C° 0 mm 2 m/s 752 mmHg 43%
    10:00 +14°C° 0 mm 2 m/s 752 mmHg 41%
    11:00 +15°C° 0 mm 2 m/s 752 mmHg 40%
    12:00 +16°C° 0 mm 2 m/s 752 mmHg 39%
    13:00 +16°C° 0 mm 2 m/s 752 mmHg 38%
    14:00 +17°C° 0 mm 2 m/s 752 mmHg 37%
    15:00 +17°C° 0 mm 2 m/s 751 mmHg 37%
    16:00 +17°C° 0 mm 2 m/s 751 mmHg 41%
    17:00 +16°C° 0 mm 2 m/s 751 mmHg 45%
    18:00 +16°C° 0 mm 2 m/s 751 mmHg 49%
    19:00 +13°C° 0 mm 3 m/s 751 mmHg 52%
    20:00 +12°C° 0 mm 3 m/s 751 mmHg 56%
    21:00 +10°C° 0 mm 3 m/s 751 mmHg 59%
    22:00 +10°C° 0 mm 3 m/s 751 mmHg 60%
    23:00 +8°C° 0 mm 4 m/s 751 mmHg 61%

    26 Mai, Duminică

    Timp Temperatura Precipitaţii Vânt Presiune Umiditate
    00:00 +8°C° 0 mm 4 m/s 750 mmHg 62%
    01:00 +8°C° 0 mm 4 m/s 750 mmHg 63%
    02:00 +8°C° 0 mm 4 m/s 750 mmHg 63%
    03:00 +7°C° 0 mm 5 m/s 750 mmHg 64%
    04:00 +8°C° 0 mm 5 m/s 750 mmHg 63%
    05:00 +9°C° 0 mm 5 m/s 750 mmHg 62%
    06:00 +10°C° 0 mm 6 m/s 750 mmHg 61%
    07:00 +11°C° 0 mm 6 m/s 749 mmHg 58%
    08:00 +14°C° 0 mm 7 m/s 749 mmHg 54%
    09:00 +16°C° 0 mm 7 m/s 749 mmHg 51%
    10:00 +17°C° 0 mm 7 m/s 748 mmHg 49%
    11:00 +17°C° 0 mm 7 m/s 748 mmHg 48%
    12:00 +18°C° 0 mm 7 m/s 748 mmHg 47%
    13:00 +17°C° 0.3 mm 7 m/s 747 mmHg 54%
    14:00 +16°C° 0.3 mm 7 m/s 747 mmHg 62%
    15:00 +15°C° 0.3 mm 6 m/s 746 mmHg 69%
    16:00 +15°C° 0 mm 6 m/s 745 mmHg 67%
    17:00 +15°C° 0 mm 7 m/s 745 mmHg 66%
    18:00 +15°C° 0 mm 7 m/s 744 mmHg 64%
    19:00 +15°C° 0.1 mm 7 m/s 744 mmHg 66%
    20:00 +16°C° 0.1 mm 7 m/s 743 mmHg 68%
    21:00 +16°C° 0.1 mm 7 m/s 743 mmHg 69%
    22:00 +16°C° 0.3 mm 7 m/s 742 mmHg 72%
    23:00 +16°C° 0.3 mm 7 m/s 742 mmHg 75%
    Arată mai mult